Location: D�derode
(51.8092°N, 10.1065°E)
Time: 01:46:01
(UTC+00:00)

Cosmos 1812 - Pass Details

Date: 17 April 2021
Orbit: 516 x 519 km, 82.5° (Epoch: 10 May)

Event Time Altitude Azimuth Distance (km) Brightness Sun altitude
Exits shadow 23:24:32 29° 45° (NE) 982 4.4 -27.4°
Drops below altitude 10° 23:26:46 10° 23° (NNE) 1,766 6.2 -27.3°
Sets 23:28:59 0° 16° (NNE) 2,659 7.5 -27.3°
